| time (UTC) | temp C | wind direction | speed KPH | gust KPH | rain 1hr cm | rain 24hr cm | rain mn cm | humidity % | barometer mb |
| 20260506004517 | 23 | 327 | 4.8 | 11.3 | 0.00 | 0.00 | 0.00 | 67 | 1004.7 |
| 20260506004013 | 23 | 317 | 9.7 | 11.3 | 0.00 | 0.00 | 0.00 | 66 | 1005.2 |
| 20260506003510 | 23 | 313 | 8.0 | 14.5 | 0.00 | 0.00 | 0.00 | 66 | 1005.1 |
| 20260506003006 | 23 | 301 | 3.2 | 12.9 | 0.00 | 0.00 | 0.00 | 67 | 1005.1 |
| 20260506002502 | 23 | 321 | 11.3 | 16.1 | 0.00 | 0.00 | 0.00 | 66 | 1004.8 |
| 20260506001958 | 24 | 270 | 8.0 | 14.5 | 0.00 | 0.00 | 0.00 | 66 | 1004.7 |
| 20260506001454 | 24 | 291 | 4.8 | 9.7 | 0.00 | 0.00 | 0.00 | 65 | 1004.8 |
| 20260506000952 | 25 | 336 | 9.7 | 12.9 | 0.00 | 0.00 | 0.00 | 65 | 1004.5 |
| 20260506000449 | 25 | 320 | 4.8 | 20.9 | 0.00 | 0.00 | 0.00 | 64 | 1004.6 |
| 20260505235946 | 25 | 282 | 6.4 | 20.9 | 0.00 | 0.00 | 0.00 | 63 | 1004.4 |
| 20260505235444 | 26 | 346 | 9.7 | 12.9 | 0.00 | 0.00 | 0.00 | 62 | 1004.5 |
| 20260505234941 | 26 | 45 | 8.0 | 16.1 | 0.00 | 0.00 | 0.00 | 62 | 1004.3 |
| 20260505234438 | 26 | 351 | 8.0 | 9.7 | 0.00 | 0.00 | 0.00 | 62 | 1004.4 |
| 20260505233935 | 26 | 308 | 4.8 | 11.3 | 0.00 | 0.00 | 0.00 | 62 | 1003.9 |
| 20260505233433 | 26 | 330 | 9.7 | 14.5 | 0.00 | 0.00 | 0.00 | 62 | 1004.2 |
| 20260505232930 | 26 | 342 | 9.7 | 17.7 | 0.00 | 0.00 | 0.00 | 61 | 1004.3 |
| 20260505232428 | 27 | 325 | 6.4 | 20.9 | 0.00 | 0.00 | 0.00 | 61 | 1004.1 |
| 20260505231924 | 28 | 301 | 12.9 | 17.7 | 0.00 | 0.00 | 0.00 | 59 | 1003.8 |
| 20260505231422 | 28 | 320 | 6.4 | 17.7 | 0.00 | 0.00 | 0.00 | 55 | 1003.8 |
| 20260505230920 | 28 | 294 | 14.5 | 14.5 | 0.00 | 0.00 | 0.00 | 54 | 1003.6 |
| 20260505230417 | 28 | 295 | 6.4 | 14.5 | 0.00 | 0.00 | 0.00 | 54 | 1003.6 |
| 20260505225914 | 28 | 326 | 4.8 | 12.9 | 0.00 | 0.00 | 0.00 | 52 | 1003.5 |
| 20260505225411 | 29 | 307 | 8.0 | 14.5 | 0.00 | 0.00 | 0.00 | 51 | 1003.4 |
| 20260505224906 | 30 | 319 | 8.0 | 12.9 | 0.00 | 0.00 | 0.00 | 50 | 1003.3 |
| 20260505224404 | 30 | 324 | 4.8 | 9.7 | 0.00 | 0.00 | 0.00 | 49 | 1003.5 |
| 20260505223900 | 30 | 329 | 8.0 | 14.5 | 0.00 | 0.00 | 0.00 | 47 | 1003.3 |
| 20260505223357 | 30 | 319 | 8.0 | 14.5 | 0.00 | 0.00 | 0.00 | 46 | 1003.4 |
| 20260505222853 | 31 | 294 | 9.7 | 14.5 | 0.00 | 0.00 | 0.00 | 45 | 1002.9 |
| 20260505222350 | 32 | 313 | 8.0 | 9.7 | 0.00 | 0.00 | 0.00 | 44 | 1003.0 |
| 20260505221847 | 33 | 259 | 3.2 | 6.4 | 0.00 | 0.00 | 0.00 | 47 | 1002.7 |
| 20260505221343 | 33 | 319 | 3.2 | 4.8 | 0.00 | 0.00 | 0.00 | 46 | 1002.8 |
| 20260505220840 | 33 | 264 | 0.0 | 1.6 | 0.00 | 0.00 | 0.00 | 47 | 1002.6 |
| 20260505220337 | 33 | 212 | 0.0 | 3.2 | 0.00 | 0.00 | 0.00 | 46 | 1002.7 |
| 20260505215835 | 34 | 269 | 3.2 | 3.2 | 0.00 | 0.00 | 0.00 | 45 | 1002.7 |
| 20260505215333 | 33 | 270 | 1.6 | 1.6 | 0.00 | 0.00 | 0.00 | 46 | 1002.8 |
| 20260505214831 | 33 | 173 | 4.8 | 11.3 | 0.00 | 0.00 | 0.00 | 47 | 1002.9 |
| 20260505214328 | 33 | 239 | 1.6 | 3.2 | 0.00 | 0.00 | 0.00 | 47 | 1003.1 |
| 20260505213825 | 33 | 253 | 1.6 | 3.2 | 0.00 | 0.00 | 0.00 | 47 | 1003.0 |
| 20260505213323 | 34 | 179 | 6.4 | 6.4 | 0.00 | 0.00 | 0.00 | 45 | 1002.8 |
| 20260505212819 | 33 | 195 | 0.0 | 4.8 | 0.00 | 0.00 | 0.00 | 46 | 1002.9 |
| 20260505212316 | 33 | 163 | 6.4 | 6.4 | 0.00 | 0.00 | 0.00 | 47 | 1003.0 |
| 20260505211812 | 33 | 188 | 4.8 | 12.9 | 0.00 | 0.00 | 0.00 | 49 | 1003.2 |
| 20260505211310 | 32 | 166 | 6.4 | 16.1 | 0.00 | 0.00 | 0.00 | 50 | 1003.0 |
| 20260505210806 | 33 | 182 | 3.2 | 9.7 | 0.00 | 0.00 | 0.00 | 50 | 1003.2 |
| 20260505210303 | 33 | 134 | 3.2 | 4.8 | 0.00 | 0.00 | 0.00 | 50 | 1003.4 |
| 20260505205800 | 32 | 193 | 4.8 | 9.7 | 0.00 | 0.00 | 0.00 | 51 | 1003.3 |
| 20260505205259 | 32 | 176 | 4.8 | 9.7 | 0.00 | 0.00 | 0.00 | 53 | 1003.3 |
| 20260505204754 | 32 | 142 | 6.4 | 11.3 | 0.00 | 0.00 | 0.00 | 52 | 1003.4 |
| 20260505204253 | 31 | 137 | 4.8 | 9.7 | 0.00 | 0.00 | 0.00 | 53 | 1003.5 |
| 20260505203749 | 32 | 193 | 9.7 | 14.5 | 0.00 | 0.00 | 0.00 | 52 | 1003.8 |
| 20260505203246 | 32 | 140 | 9.7 | 12.9 | 0.00 | 0.00 | 0.00 | 52 | 1003.5 |
| 20260505202742 | 32 | 237 | 4.8 | 16.1 | 0.00 | 0.00 | 0.00 | 53 | 1003.8 |
| 20260505202239 | 32 | 189 | 6.4 | 11.3 | 0.00 | 0.00 | 0.00 | 53 | 1003.8 |
| 20260505201735 | 32 | 231 | 3.2 | 14.5 | 0.00 | 0.00 | 0.00 | 52 | 1003.9 |
| 20260505201233 | 32 | 148 | 11.3 | 17.7 | 0.00 | 0.00 | 0.00 | 52 | 1003.8 |
| 20260505200731 | 32 | 10 | 4.8 | 4.8 | 0.00 | 0.00 | 0.00 | 53 | 1003.8 |
| 20260505200228 | 32 | 192 | 6.4 | 11.3 | 0.00 | 0.00 | 0.00 | 54 | 1003.9 |
| 20260505195723 | 32 | 183 | 3.2 | 4.8 | 0.00 | 0.00 | 0.00 | 53 | 1003.9 |
| 20260505195221 | 31 | 190 | 3.2 | 12.9 | 0.00 | 0.00 | 0.00 | 54 | 1003.9 |
| 20260505194718 | 31 | 222 | 3.2 | 14.5 | 0.00 | 0.00 | 0.00 | 55 | 1003.9 |
| 20260505194214 | 31 | 196 | 6.4 | 6.4 | 0.00 | 0.00 | 0.00 | 55 | 1004.0 |
| 20260505193710 | 31 | 216 | 6.4 | 14.5 | 0.00 | 0.00 | 0.00 | 54 | 1004.1 |
| 20260505193208 | 31 | 134 | 8.0 | 12.9 | 0.00 | 0.00 | 0.00 | 54 | 1004.2 |
| 20260505192707 | 31 | 182 | 3.2 | 4.8 | 0.00 | 0.00 | 0.00 | 55 | 1004.0 |
| 20260505192203 | 30 | 162 | 6.4 | 14.5 | 0.00 | 0.00 | 0.00 | 56 | 1003.9 |
| 20260505191702 | 30 | 173 | 3.2 | 12.9 | 0.00 | 0.00 | 0.00 | 57 | 1004.0 |
| 20260505191200 | 30 | 240 | 4.8 | 12.9 | 0.00 | 0.00 | 0.00 | 58 | 1003.9 |
| 20260505190656 | 30 | 201 | 9.7 | 14.5 | 0.00 | 0.00 | 0.00 | 58 | 1004.0 |
| 20260505190155 | 30 | 175 | 8.0 | 12.9 | 0.00 | 0.00 | 0.00 | 58 | 1004.1 |
| 20260505185652 | 30 | 196 | 3.2 | 14.5 | 0.00 | 0.00 | 0.00 | 59 | 1004.1 |
| 20260505185149 | 30 | 246 | 11.3 | 14.5 | 0.00 | 0.00 | 0.00 | 58 | 1004.1 |
| 20260505184645 | 30 | 227 | 9.7 | 12.9 | 0.00 | 0.00 | 0.00 | 59 | 1004.3 |
| 20260505184142 | 30 | 222 | 8.0 | 11.3 | 0.00 | 0.00 | 0.00 | 59 | 1004.4 |
| 20260505183639 | 29 | 233 | 9.7 | 12.9 | 0.00 | 0.00 | 0.00 | 59 | 1004.3 |
| 20260505183137 | 28 | 148 | 16.1 | 17.7 | 0.00 | 0.00 | 0.00 | 61 | 1004.2 |
| 20260505182633 | 29 | 140 | 11.3 | 16.1 | 0.00 | 0.00 | 0.00 | 61 | 1004.2 |
| 20260505182130 | 30 | 206 | 9.7 | 12.9 | 0.00 | 0.00 | 0.00 | 59 | 1004.3 |
| 20260505181626 | 29 | 233 | 12.9 | 22.5 | 0.00 | 0.00 | 0.00 | 58 | 1004.4 |
| 20260505181124 | 29 | 190 | 12.9 | 25.7 | 0.00 | 0.00 | 0.00 | 60 | 1004.2 |
| 20260505180620 | 29 | 204 | 8.0 | 11.3 | 0.00 | 0.00 | 0.00 | 61 | 1004.4 |
| 20260505180117 | 29 | 187 | 6.4 | 11.3 | 0.00 | 0.00 | 0.00 | 60 | 1004.3 |
| 20260505175613 | 29 | 207 | 8.0 | 14.5 | 0.00 | 0.00 | 0.00 | 61 | 1004.4 |
| 20260505175110 | 29 | 137 | 11.3 | 20.9 | 0.00 | 0.00 | 0.00 | 61 | 1004.3 |
| 20260505174606 | 29 | 237 | 4.8 | 14.5 | 0.00 | 0.00 | 0.00 | 62 | 1004.1 |
| 20260505174102 | 28 | 189 | 6.4 | 14.5 | 0.00 | 0.00 | 0.00 | 63 | 1004.1 |
| 20260505173559 | 28 | 178 | 6.4 | 22.5 | 0.00 | 0.00 | 0.00 | 63 | 1004.3 |
| 20260505173056 | 28 | 191 | 4.8 | 11.3 | 0.00 | 0.00 | 0.00 | 62 | 1004.3 |
| 20260505172554 | 28 | 187 | 1.6 | 16.1 | 0.00 | 0.00 | 0.00 | 62 | 1004.5 |
| 20260505172050 | 28 | 159 | 11.3 | 12.9 | 0.00 | 0.00 | 0.00 | 63 | 1004.2 |
| 20260505171545 | 28 | 220 | 3.2 | 12.9 | 0.00 | 0.00 | 0.00 | 63 | 1004.4 |
| 20260505171042 | 28 | 171 | 6.4 | 16.1 | 0.00 | 0.00 | 0.00 | 65 | 1004.3 |
| 20260505170539 | 27 | 172 | 8.0 | 14.5 | 0.00 | 0.00 | 0.00 | 66 | 1004.6 |
| 20260505170036 | 27 | 134 | 12.9 | 16.1 | 0.00 | 0.00 | 0.00 | 66 | 1004.5 |
| 20260505165531 | 27 | 145 | 9.7 | 17.7 | 0.00 | 0.00 | 0.00 | 66 | 1004.5 |
| 20260505165026 | 27 | 255 | 3.2 | 12.9 | 0.00 | 0.00 | 0.00 | 66 | 1004.6 |
| 20260505164523 | 27 | 129 | 6.4 | 17.7 | 0.00 | 0.00 | 0.00 | 67 | 1004.4 |
| 20260505164021 | 27 | 149 | 4.8 | 16.1 | 0.00 | 0.00 | 0.00 | 68 | 1004.3 |
| 20260505163519 | 27 | 181 | 6.4 | 12.9 | 0.00 | 0.00 | 0.00 | 68 | 1004.4 |
| 20260505163015 | 27 | 212 | 14.5 | 20.9 | 0.00 | 0.00 | 0.00 | 69 | 1004.5 |
| 20260505162509 | 27 | 161 | 9.7 | 16.1 | 0.00 | 0.00 | 0.00 | 69 | 1004.4 |
| 20260505162006 | 27 | 204 | 9.7 | 17.7 | 0.00 | 0.00 | 0.00 | 69 | 1004.3 |
| 20260505161502 | 26 | 173 | 11.3 | 17.7 | 0.00 | 0.00 | 0.00 | 70 | 1004.4 |
| 20260505160959 | 26 | 174 | 12.9 | 20.9 | 0.00 | 0.00 | 0.00 | 70 | 1004.4 |
| 20260505160458 | 26 | 171 | 12.9 | 20.9 | 0.00 | 0.00 | 0.00 | 71 | 1004.5 |
| 20260505152934 | 25 | 191 | 8.0 | 16.1 | 0.00 | 0.00 | 0.00 | 74 | 1004.3 |
| 20260505152431 | 25 | 178 | 4.8 | 9.7 | 0.00 | 0.00 | 0.00 | 74 | 1004.2 |
| 20260505151932 | 25 | 194 | 12.9 | 17.7 | 0.00 | 0.00 | 0.00 | 74 | 1004.2 |
| 20260505151427 | 25 | 146 | 14.5 | 20.9 | 0.00 | 0.00 | 0.00 | 74 | 1004.1 |
| 20260505150925 | 25 | 165 | 6.4 | 12.9 | 0.00 | 0.00 | 0.00 | 74 | 1004.0 |
| 20260505150422 | 25 | 204 | 6.4 | 11.3 | 0.00 | 0.00 | 0.00 | 75 | 1004.6 |
| 20260505140352 | 22 | 171 | 9.7 | 20.9 | 0.00 | 0.00 | 0.00 | 80 | 1004.1 |
| 20260505124805 | 21 | 210 | 9.7 | 16.1 | 0.00 | 0.00 | 0.00 | 84 | 1003.6 |
| 20260505124302 | 21 | 111 | 12.9 | 22.5 | 0.00 | 0.00 | 0.00 | 84 | 1003.6 |
| 20260505123758 | 21 | 202 | 9.7 | 22.5 | 0.00 | 0.00 | 0.00 | 84 | 1003.8 |
| 20260505123255 | 21 | 183 | 6.4 | 11.3 | 0.00 | 0.00 | 0.00 | 84 | 1003.9 |
| 20260505122751 | 21 | 208 | 9.7 | 14.5 | 0.00 | 0.00 | 0.00 | 84 | 1003.7 |
| 20260505122249 | 21 | 180 | 8.0 | 14.5 | 0.00 | 0.00 | 0.00 | 84 | 1003.4 |
| 20260505121745 | 21 | 183 | 4.8 | 9.7 | 0.00 | 0.00 | 0.00 | 84 | 1003.4 |
| 20260505121242 | 21 | 162 | 8.0 | 20.9 | 0.00 | 0.00 | 0.00 | 84 | 1003.2 |
| 20260505120738 | 21 | 240 | 9.7 | 17.7 | 0.00 | 0.00 | 0.00 | 84 | 1003.3 |
| 20260505120234 | 21 | 196 | 9.7 | 16.1 | 0.00 | 0.00 | 0.00 | 84 | 1003.4 |
| 20260505115733 | 21 | 165 | 11.3 | 22.5 | 0.00 | 0.00 | 0.00 | 84 | 1003.1 |
| 20260505115231 | 21 | 184 | 9.7 | 17.7 | 0.00 | 0.00 | 0.00 | 84 | 1003.1 |
| 20260505114728 | 21 | 129 | 9.7 | 16.1 | 0.00 | 0.00 | 0.00 | 84 | 1003.3 |
| 20260505114224 | 21 | 185 | 14.5 | 17.7 | 0.00 | 0.00 | 0.00 | 84 | 1003.2 |
| 20260505113720 | 21 | 150 | 12.9 | 20.9 | 0.00 | 0.00 | 0.00 | 83 | 1003.2 |
| 20260505113217 | 21 | 204 | 12.9 | 16.1 | 0.00 | 0.00 | 0.00 | 83 | 1003.1 |
| 20260505112714 | 21 | 148 | 8.0 | 14.5 | 0.00 | 0.00 | 0.00 | 83 | 1003.3 |
| 20260505112212 | 21 | 177 | 6.4 | 20.9 | 0.00 | 0.00 | 0.00 | 83 | 1003.1 |
| 20260505111711 | 21 | 154 | 9.7 | 16.1 | 0.00 | 0.00 | 0.00 | 83 | 1003.0 |
| 20260505111207 | 21 | 183 | 12.9 | 16.1 | 0.00 | 0.00 | 0.00 | 83 | 1003.0 |
| 20260505110703 | 22 | 191 | 6.4 | 16.1 | 0.00 | 0.00 | 0.00 | 83 | 1003.0 |
| 20260505110201 | 22 | 140 | 6.4 | 11.3 | 0.00 | 0.00 | 0.00 | 83 | 1003.1 |
| 20260505102137 | 22 | 180 | 11.3 | 17.7 | 0.00 | 0.00 | 0.00 | 82 | 1003.2 |
| 20260505101635 | 22 | 170 | 8.0 | 12.9 | 0.00 | 0.00 | 0.00 | 82 | 1002.9 |
| 20260505101131 | 22 | 215 | 6.4 | 12.9 | 0.00 | 0.00 | 0.00 | 82 | 1003.2 |
| 20260505100627 | 22 | 158 | 14.5 | 22.5 | 0.00 | 0.00 | 0.00 | 82 | 1003.1 |
| 20260505100124 | 22 | 231 | 8.0 | 16.1 | 0.00 | 0.00 | 0.00 | 82 | 1003.4 |
| 20260505095620 | 22 | 233 | 6.4 | 17.7 | 0.00 | 0.00 | 0.00 | 82 | 1003.3 |
| 20260505095117 | 22 | 218 | 6.4 | 16.1 | 0.00 | 0.00 | 0.00 | 82 | 1003.2 |
| 20260505094614 | 22 | 148 | 6.4 | 20.9 | 0.00 | 0.00 | 0.00 | 82 | 1003.3 |
| 20260505094110 | 22 | 212 | 8.0 | 14.5 | 0.00 | 0.00 | 0.00 | 81 | 1003.4 |
| 20260505093606 | 22 | 187 | 8.0 | 20.9 | 0.00 | 0.00 | 0.00 | 81 | 1003.3 |
| 20260505093104 | 22 | 210 | 9.7 | 16.1 | 0.00 | 0.00 | 0.00 | 81 | 1003.5 |
| 20260505092601 | 22 | 176 | 12.9 | 17.7 | 0.00 | 0.00 | 0.00 | 81 | 1003.4 |
| 20260505092100 | 22 | 172 | 12.9 | 20.9 | 0.00 | 0.00 | 0.00 | 81 | 1003.5 |
| 20260505091556 | 22 | 206 | 6.4 | 17.7 | 0.00 | 0.00 | 0.00 | 81 | 1003.7 |
| 20260505091054 | 22 | 165 | 9.7 | 20.9 | 0.00 | 0.00 | 0.00 | 81 | 1003.5 |
| 20260505090552 | 22 | 173 | 9.7 | 20.9 | 0.00 | 0.00 | 0.00 | 81 | 1003.6 |
| 20260505090050 | 22 | 194 | 12.9 | 20.9 | 0.00 | 0.00 | 0.00 | 81 | 1003.7 |
| 20260505085547 | 22 | 171 | 14.5 | 14.5 | 0.00 | 0.00 | 0.00 | 81 | 1003.8 |
| 20260505085045 | 22 | 190 | 6.4 | 12.9 | 0.00 | 0.00 | 0.00 | 81 | 1003.7 |
| 20260505084543 | 22 | 156 | 9.7 | 17.7 | 0.00 | 0.00 | 0.00 | 81 | 1003.7 |
| 20260505084041 | 22 | 207 | 9.7 | 17.7 | 0.00 | 0.00 | 0.00 | 80 | 1003.7 |
| 20260505083538 | 22 | 189 | 14.5 | 20.9 | 0.00 | 0.00 | 0.00 | 80 | 1003.8 |
| 20260505083034 | 22 | 153 | 6.4 | 14.5 | 0.00 | 0.00 | 0.00 | 80 | 1003.8 |
| 20260505082530 | 22 | 183 | 6.4 | 16.1 | 0.00 | 0.00 | 0.00 | 80 | 1003.6 |
| 20260505082027 | 22 | 166 | 14.5 | 20.9 | 0.00 | 0.00 | 0.00 | 80 | 1003.9 |
| 20260505081523 | 22 | 179 | 8.0 | 12.9 | 0.00 | 0.00 | 0.00 | 80 | 1003.8 |
| 20260505081021 | 22 | 130 | 17.7 | 24.1 | 0.00 | 0.00 | 0.00 | 80 | 1003.8 |
| 20260505080517 | 22 | 177 | 14.5 | 20.9 | 0.00 | 0.00 | 0.00 | 80 | 1003.8 |
| 20260505080014 | 22 | 172 | 11.3 | 17.7 | 0.00 | 0.00 | 0.00 | 79 | 1003.7 |
| 20260505075509 | 22 | 201 | 12.9 | 17.7 | 0.00 | 0.00 | 0.00 | 79 | 1004.0 |
| 20260505075007 | 22 | 123 | 14.5 | 20.9 | 0.00 | 0.00 | 0.00 | 79 | 1003.9 |
| 20260505074504 | 22 | 166 | 6.4 | 16.1 | 0.00 | 0.00 | 0.00 | 79 | 1004.0 |
| 20260505074001 | 22 | 208 | 11.3 | 16.1 | 0.00 | 0.00 | 0.00 | 78 | 1004.1 |
| 20260505073458 | 22 | 199 | 6.4 | 11.3 | 0.00 | 0.00 | 0.00 | 78 | 1004.4 |
| 20260505072955 | 22 | 104 | 8.0 | 16.1 | 0.00 | 0.00 | 0.00 | 78 | 1004.4 |
| 20260505072451 | 22 | 144 | 8.0 | 12.9 | 0.00 | 0.00 | 0.00 | 77 | 1004.3 |
| 20260505071948 | 22 | 187 | 8.0 | 20.9 | 0.00 | 0.00 | 0.00 | 77 | 1004.4 |
| 20260505071444 | 22 | 210 | 11.3 | 14.5 | 0.00 | 0.00 | 0.00 | 77 | 1004.8 |
| 20260505070942 | 23 | 175 | 4.8 | 20.9 | 0.00 | 0.00 | 0.00 | 76 | 1004.7 |
| 20260505070438 | 23 | 193 | 8.0 | 11.3 | 0.00 | 0.00 | 0.00 | 76 | 1004.8 |
| 20260505065934 | 23 | 214 | 8.0 | 14.5 | 0.00 | 0.00 | 0.00 | 75 | 1005.1 |
| 20260505065431 | 23 | 155 | 11.3 | 22.5 | 0.00 | 0.00 | 0.00 | 75 | 1005.2 |
| 20260505064928 | 23 | 196 | 8.0 | 14.5 | 0.00 | 0.00 | 0.00 | 75 | 1005.0 |
| 20260505064425 | 23 | 191 | 6.4 | 14.5 | 0.00 | 0.00 | 0.00 | 74 | 1005.2 |
| 20260505063923 | 23 | 155 | 6.4 | 11.3 | 0.00 | 0.00 | 0.00 | 74 | 1005.1 |
| 20260505063419 | 23 | 137 | 11.3 | 14.5 | 0.00 | 0.00 | 0.00 | 73 | 1005.0 |
| 20260505062916 | 23 | 149 | 8.0 | 16.1 | 0.00 | 0.00 | 0.00 | 73 | 1005.0 |
| 20260505062413 | 23 | 209 | 14.5 | 20.9 | 0.00 | 0.00 | 0.00 | 72 | 1005.0 |
| 20260505061909 | 23 | 144 | 9.7 | 17.7 | 0.00 | 0.00 | 0.00 | 72 | 1005.2 |
| 20260505061408 | 23 | 176 | 8.0 | 17.7 | 0.00 | 0.00 | 0.00 | 72 | 1005.4 |
| 20260505060905 | 23 | 159 | 6.4 | 12.9 | 0.00 | 0.00 | 0.00 | 72 | 1005.2 |
| 20260505060402 | 23 | 132 | 9.7 | 16.1 | 0.00 | 0.00 | 0.00 | 71 | 1005.1 |
| 20260505055858 | 23 | 191 | 4.8 | 12.9 | 0.00 | 0.00 | 0.00 | 71 | 1005.2 |
| 20260505055354 | 23 | 187 | 8.0 | 11.3 | 0.00 | 0.00 | 0.00 | 71 | 1005.1 |
| 20260505054851 | 23 | 140 | 11.3 | 12.9 | 0.00 | 0.00 | 0.00 | 71 | 1004.9 |
| 20260505054348 | 23 | 170 | 4.8 | 9.7 | 0.00 | 0.00 | 0.00 | 71 | 1005.0 |
| 20260505053847 | 23 | 179 | 9.7 | 12.9 | 0.00 | 0.00 | 0.00 | 71 | 1005.2 |
| 20260505053343 | 23 | 175 | 6.4 | 9.7 | 0.00 | 0.00 | 0.00 | 71 | 1005.1 |
| 20260505052840 | 23 | 177 | 6.4 | 12.9 | 0.00 | 0.00 | 0.00 | 70 | 1004.9 |
| 20260505052337 | 23 | 155 | 8.0 | 16.1 | 0.00 | 0.00 | 0.00 | 70 | 1005.1 |
| 20260505051834 | 23 | 174 | 6.4 | 16.1 | 0.00 | 0.00 | 0.00 | 70 | 1005.2 |
| 20260505051331 | 23 | 189 | 6.4 | 11.3 | 0.00 | 0.00 | 0.00 | 70 | 1005.4 |
| 20260505050829 | 23 | 199 | 4.8 | 16.1 | 0.00 | 0.00 | 0.00 | 70 | 1005.2 |
| 20260505050328 | 23 | 211 | 6.4 | 17.7 | 0.00 | 0.00 | 0.00 | 70 | 1005.4 |
| 20260505041757 | 24 | 180 | 8.0 | 14.5 | 0.00 | 0.00 | 0.00 | 68 | 1005.3 |
| 20260505041255 | 24 | 187 | 12.9 | 20.9 | 0.00 | 0.00 | 0.00 | 68 | 1005.3 |
| 20260505040752 | 24 | 112 | 8.0 | 17.7 | 0.00 | 0.00 | 0.00 | 68 | 1005.5 |
| 20260505040249 | 24 | 169 | 17.7 | 25.7 | 0.00 | 0.00 | 0.00 | 67 | 1005.4 |
| 20260505035746 | 24 | 162 | 11.3 | 16.1 | 0.00 | 0.00 | 0.00 | 67 | 1005.4 |
| 20260505035242 | 24 | 122 | 9.7 | 14.5 | 0.00 | 0.00 | 0.00 | 67 | 1005.5 |
| 20260505034739 | 24 | 177 | 6.4 | 14.5 | 0.00 | 0.00 | 0.00 | 67 | 1005.4 |
| 20260505034236 | 24 | 187 | 9.7 | 16.1 | 0.00 | 0.00 | 0.00 | 67 | 1005.3 |
| 20260505033733 | 24 | 200 | 16.1 | 22.5 | 0.00 | 0.00 | 0.00 | 67 | 1005.3 |
| 20260505033230 | 24 | 174 | 9.7 | 25.7 | 0.00 | 0.00 | 0.00 | 66 | 1005.3 |
| 20260505032728 | 24 | 153 | 8.0 | 20.9 | 0.00 | 0.00 | 0.00 | 66 | 1005.3 |
| 20260505032224 | 24 | 142 | 8.0 | 12.9 | 0.00 | 0.00 | 0.00 | 66 | 1005.4 |
| 20260505031721 | 24 | 175 | 11.3 | 20.9 | 0.00 | 0.00 | 0.00 | 66 | 1005.3 |
| 20260505031218 | 24 | 120 | 11.3 | 22.5 | 0.00 | 0.00 | 0.00 | 66 | 1005.6 |
| 20260505030715 | 25 | 179 | 14.5 | 22.5 | 0.00 | 0.00 | 0.00 | 66 | 1005.4 |
| 20260505030211 | 25 | 153 | 14.5 | 20.9 | 0.00 | 0.00 | 0.00 | 66 | 1005.6 |
| 20260505025707 | 25 | 158 | 11.3 | 16.1 | 0.00 | 0.00 | 0.00 | 66 | 1005.5 |
| 20260505025205 | 25 | 191 | 11.3 | 20.9 | 0.00 | 0.00 | 0.00 | 65 | 1005.5 |
| 20260505024703 | 25 | 150 | 9.7 | 22.5 | 0.00 | 0.00 | 0.00 | 65 | 1005.6 |
| 20260505024200 | 25 | 168 | 8.0 | 22.5 | 0.00 | 0.00 | 0.00 | 65 | 1005.2 |
| 20260505023657 | 25 | 160 | 6.4 | 14.5 | 0.00 | 0.00 | 0.00 | 65 | 1005.3 |
| 20260505023154 | 25 | 165 | 8.0 | 16.1 | 0.00 | 0.00 | 0.00 | 65 | 1005.5 |
| 20260505022652 | 25 | 161 | 9.7 | 16.1 | 0.00 | 0.00 | 0.00 | 65 | 1005.5 |
| 20260505022149 | 25 | 191 | 6.4 | 9.7 | 0.00 | 0.00 | 0.00 | 65 | 1005.3 |
| 20260505021645 | 25 | 156 | 8.0 | 20.9 | 0.00 | 0.00 | 0.00 | 64 | 1005.3 |
| 20260505021142 | 25 | 166 | 11.3 | 16.1 | 0.00 | 0.00 | 0.00 | 64 | 1005.4 |
| 20260505020637 | 25 | 138 | 4.8 | 14.5 | 0.00 | 0.00 | 0.00 | 64 | 1005.3 |
| 20260505020134 | 25 | 217 | 14.5 | 17.7 | 0.00 | 0.00 | 0.00 | 64 | 1005.4 |
| 20260505015631 | 25 | 133 | 14.5 | 20.9 | 0.00 | 0.00 | 0.00 | 64 | 1005.2 |
| 20260505015127 | 25 | 116 | 9.7 | 22.5 | 0.00 | 0.00 | 0.00 | 64 | 1005.2 |
| 20260505014624 | 25 | 157 | 8.0 | 11.3 | 0.00 | 0.00 | 0.00 | 64 | 1005.1 |
| 20260505014121 | 25 | 148 | 14.5 | 17.7 | 0.00 | 0.00 | 0.00 | 63 | 1005.2 |
| 20260505013619 | 25 | 189 | 14.5 | 17.7 | 0.00 | 0.00 | 0.00 | 63 | 1005.4 |
| 20260505013116 | 25 | 187 | 8.0 | 12.9 | 0.00 | 0.00 | 0.00 | 63 | 1005.3 |
| 20260505012614 | 25 | 164 | 9.7 | 12.9 | 0.00 | 0.00 | 0.00 | 63 | 1005.2 |
| 20260505012111 | 25 | 180 | 4.8 | 14.5 | 0.00 | 0.00 | 0.00 | 63 | 1005.3 |
| 20260505011606 | 25 | 103 | 11.3 | 16.1 | 0.00 | 0.00 | 0.00 | 63 | 1005.4 |
| 20260505011104 | 25 | 157 | 6.4 | 17.7 | 0.00 | 0.00 | 0.00 | 62 | 1005.2 |
| 20260505010604 | 25 | 141 | 6.4 | 14.5 | 0.00 | 0.00 | 0.00 | 62 | 1005.2 |
| 20260505005557 | 25 | 180 | 17.7 | 27.4 | 0.00 | 0.00 | 0.00 | 61 | 1005.3 |
| 20260505005055 | 25 | 188 | 12.9 | 24.1 | 0.00 | 0.00 | 0.00 | 61 | 1005.0 |